Weather History for Salt Lake City, UT

Change the Weather History Date:

Thursday, March 20, 2014

  Actual Average Record
Temperature  
Mean Temperature 52 °F 45 °F  
Max Temperature 67 °F 55 °F 74 °F (1997)
Min Temperature 37 °F 35 °F 17 °F (1965)
Degree Days  
Heating Degree Days 13 20  
Month to date heating degree days 321 454  
Since 1 July heating degree days 4308 4710  
Cooling Degree Days 0 0  
Month to date cooling degree days 0 0  
Year to date cooling degree days 0 0  
Growing Degree Days 2 (Base 50)    
Moisture  
Dew Point 15 °F    
Average Humidity 28    
Maximum Humidity 46    
Minimum Humidity 10    
Precipitation  
Precipitation 0.00 in 0.06 in 0.69 in (1946)
Month to date precipitation 0.35 1.09  
Year to date precipitation 3.12 3.59  
Snow  
Snow 0.00 in 0.20 in 4.40 in (1944)
Month to date snowfall T 4.4  
Since 1 July snowfall 35.0 49.8  
Snow Depth 0.00 in    
Sea Level Pressure  
Sea Level Pressure 29.96 in    
Wind  
Wind Speed 8 mph (SE)    
Max Wind Speed 16 mph    
Max Gust Speed 23 mph    
Visibility 10 miles    
Events      
T = Trace of Precipitation, MM = Missing Value Source: NWS Daily Summary

Daily Weather History Graph

Daily Weather History Graph

Search for Another Location

Airport:

Trip Planner

Search our weather history database for the weather conditions in past years. The results will help you decide how hot, cold, wet, or windy it might be!

Date:

Astronomy

Mar. 20, 2014 Rise Set
Actual Time 7:31 AM MDT 7:40 PM MDT
Civil Twilight 7:03 AM MDT 8:07 PM MDT
Nautical Twilight 6:31 AM MDT 8:39 PM MDT
Astronomical Twilight 5:59 AM MDT 9:12 PM MDT
Moon No Moon Rise 9:38 AM MDT (3/20)
Length of Visible Light 13h 03m
Length of Day
12h 08m
Waning Gibbous, 83% of the Moon is Illuminated
Mar 20
Waning Gibbous
Mar 23
Last Quarter
Mar 30
New
Apr 7
First Quarter
Apr 15
Full

Hourly Weather History & Observations

Time (MDT) Temp. Windchill Dew Point Humidity Pressure Visibility Wind Dir Wind Speed Gust Speed Precip Events Conditions
12:53 AM 44.1 °F 40.8 °F 14.0 °F 30% 30.05 in 10.0 mi SE 5.8 mph - N/A   Partly Cloudy
1:53 AM 41.0 °F 37.1 °F 12.9 °F 32% 30.04 in 10.0 mi SSE 5.8 mph - N/A   Partly Cloudy
2:53 AM 37.9 °F 32.1 °F 12.9 °F 36% 30.03 in 10.0 mi SE 8.1 mph - N/A   Scattered Clouds
3:53 AM 37.9 °F 31.5 °F 10.9 °F 33% 30.02 in 10.0 mi SE 9.2 mph - N/A   Partly Cloudy
4:53 AM 39.9 °F 35.8 °F 12.0 °F 32% 30.01 in 10.0 mi SSE 5.8 mph - N/A   Scattered Clouds
5:53 AM 39.0 °F 34.0 °F 17.1 °F 41% 30.01 in 10.0 mi SE 6.9 mph - N/A   Mostly Cloudy
6:53 AM 39.9 °F 35.1 °F 16.0 °F 38% 30.01 in 10.0 mi SSE 6.9 mph - N/A   Mostly Cloudy
7:53 AM 37.9 °F 32.7 °F 16.0 °F 41% 30.04 in 10.0 mi SE 6.9 mph - N/A   Mostly Cloudy
8:53 AM 45.0 °F 40.1 °F 16.0 °F 31% 30.02 in 10.0 mi SE 9.2 mph - N/A   Scattered Clouds
9:53 AM 50.0 °F - 16.0 °F 26% 30.00 in 10.0 mi SSE 10.4 mph - N/A   Scattered Clouds
10:53 AM 55.9 °F - 16.0 °F 21% 30.00 in 10.0 mi ESE 8.1 mph - N/A   Scattered Clouds
11:53 AM 61.0 °F - 7.0 °F 12% 29.97 in 10.0 mi South 10.4 mph - N/A   Scattered Clouds
12:53 PM 64.0 °F - 10.0 °F 12% 29.95 in 10.0 mi South 4.6 mph - N/A   Scattered Clouds
1:53 PM 66.0 °F - 9.0 °F 11% 29.93 in 10.0 mi Variable 6.9 mph - N/A   Scattered Clouds
2:53 PM 66.0 °F - 12.9 °F 13% 29.92 in 10.0 mi Variable 6.9 mph - N/A   Scattered Clouds
3:53 PM 66.0 °F - 12.9 °F 13% 29.90 in 10.0 mi NW 17.3 mph 23.0 mph N/A   Mostly Cloudy
4:53 PM 64.0 °F - 15.1 °F 15% 29.91 in 10.0 mi NW 11.5 mph - N/A   Mostly Cloudy
5:53 PM 63.0 °F - 18.0 °F 18% 29.90 in 10.0 mi North 6.9 mph - N/A   Mostly Cloudy
6:53 PM 62.1 °F - 19.0 °F 19% 29.88 in 10.0 mi North 3.5 mph - N/A   Mostly Cloudy
7:53 PM 60.1 °F - 12.9 °F 16% 29.88 in 10.0 mi SSE 3.5 mph - N/A   Mostly Cloudy
8:53 PM 57.9 °F - 15.1 °F 19% 29.87 in 10.0 mi Calm Calm - N/A   Scattered Clouds
9:53 PM 54.0 °F - 17.1 °F 23% 29.88 in 10.0 mi SSE 4.6 mph - N/A   Scattered Clouds
10:53 PM 48.0 °F - 26.1 °F 42% 29.91 in 10.0 mi North 9.2 mph - N/A   Scattered Clouds
11:53 PM 48.0 °F - 28.0 °F 46% 29.91 in 10.0 mi NW 10.4 mph - N/A   Partly Cloudy